TimeEST,TemperatureF,Dew PointF,Humidity,Sea Level PressureIn,VisibilityMPH,Wind Direction,Wind SpeedMPH,Gust SpeedMPH,PrecipitationIn,Events,Conditions,WindDirDegrees,DateUTC
12:54 AM,37.0,33.1,86,30.42,10.0,NE,6.9,-,N/A,,Mostly Cloudy,40,2012-12-01 05:54:00
1:54 AM,36.0,32.0,86,30.42,10.0,Variable,3.5,-,N/A,,Mostly Cloudy,0,2012-12-01 06:54:00
2:54 AM,36.0,30.9,82,30.43,10.0,NE,4.6,-,N/A,,Overcast,50,2012-12-01 07:54:00
3:17 AM,35.6,30.2,81,30.40,10.0,NE,5.8,-,N/A,,Overcast,50,2012-12-01 08:17:00
3:46 AM,35.6,30.2,81,30.40,10.0,NE,8.1,-,N/A,,Overcast,40,2012-12-01 08:46:00
4:54 AM,35.1,30.9,85,30.43,10.0,NE,4.6,-,N/A,,Overcast,40,2012-12-01 09:54:00
6:54 AM,36.0,30.9,82,30.46,10.0,NE,4.6,-,N/A,,Overcast,40,2012-12-01 11:54:00
8:54 AM,36.0,30.9,82,30.49,10.0,NE,5.8,-,N/A,,Overcast,50,2012-12-01 13:54:00
10:54 AM,39.0,33.1,79,30.49,10.0,Variable,3.5,-,N/A,,Overcast,0,2012-12-01 15:54:00
11:54 AM,39.9,34.0,79,30.45,10.0,Calm,Calm,-,N/A,,Overcast,0,2012-12-01 16:54:00
12:54 PM,42.1,35.1,76,30.43,10.0,NE,4.6,-,N/A,,Overcast,40,2012-12-01 17:54:00
1:54 PM,42.1,36.0,79,30.43,10.0,Calm,Calm,-,N/A,,Overcast,0,2012-12-01 18:54:00
2:54 PM,42.1,35.1,76,30.43,10.0,NE,5.8,-,N/A,,Overcast,40,2012-12-01 19:54:00
4:54 PM,39.9,35.1,83,30.45,10.0,NE,4.6,-,N/A,,Overcast,40,2012-12-01 21:54:00
5:54 PM,39.0,36.0,89,30.46,10.0,NE,4.6,-,N/A,,Overcast,40,2012-12-01 22:54:00
6:54 PM,37.9,36.0,93,30.47,10.0,NE,8.1,-,N/A,,Overcast,40,2012-12-01 23:54:00
7:54 PM,37.9,36.0,93,30.46,7.0,Variable,3.5,-,N/A,,Overcast,0,2012-12-02 00:54:00
8:06 PM,37.4,35.6,93,30.44,6.0,NE,3.5,-,N/A,,Overcast,40,2012-12-02 01:06:00
8:52 PM,37.4,37.4,100,30.43,2.5,Calm,Calm,-,N/A,,Overcast,0,2012-12-02 01:52:00
8:54 PM,37.0,37.0,100,30.45,2.5,Calm,Calm,-,N/A,,Overcast,0,2012-12-02 01:54:00
9:07 PM,37.4,37.4,100,30.43,1.8,Calm,Calm,-,N/A,,Overcast,0,2012-12-02 02:07:00
9:33 PM,37.4,37.4,100,30.43,0.8,NNE,3.5,-,N/A,,Mist,30,2012-12-02 02:33:00
9:54 PM,37.0,37.0,100,30.44,0.8,Calm,Calm,-,N/A,,Mist,0,2012-12-02 02:54:00
10:54 PM,37.0,37.0,100,30.44,0.8,NNE,3.5,-,0.01,,Mist,30,2012-12-02 03:54:00
11:54 PM,37.0,37.0,100,30.43,0.8,NE,3.5,-,N/A,,Mist,50,2012-12-02 04:54:00